(50000) Quaoar
ephemeris date magn radius delta ra dec elong phase
Today18 Jun 202618.742.612 AU41.640 AU18h47m-14°47'162.8°0.4°
Opposition3 Jul 202618.742.611 AU41.604 AU18h46m-14°48'171.8°0.2°
(50000) Quaoar - 2026-06-18
astro.vanbuitenen.nl


 
-1 year
-1 month
-1 day
Now
+1 day
+1 month
+1 year

The interactive orbit chart above shows the body's path through the solar system and its position at the given date. Green and blue lines are shown perpendicular to the ecliptic plane: Green if the path is above the ecliptic plane, blue if it is below. (Left-click and drag to rotate the view; Right-click and drag to move the view; Use scroll wheel to zoom in our out.)

The orbital elements of Quaoar are:

            e (Eccentricity)                : 0.0351973
            a (Semimajor axis)              : 43.1562103
            i (Inclination)                 : 7.99158
            Ω (Longitude of ascending node) : 188.91914
            ω (Argument of perihelion)      : 163.20684
            M (Mean anomaly)                : 292.85058
            Epoch                           : 2026 Jun 09

            L (Longitude of perihelion)     : 172.28001
            B (Latitude of perihelion)      : 2.30205
            P (Orbital period in years)     : 283.51            
        

The light curve chart below shows the estimated development of the minor planet's magnitude.


The all-sky chart below shows the path of the minor planet over the same period as the light curve. The current position is marked yellow.





The following chart shows the path of the minor planet in the next few days. The field of view is optimized for (~10x50) binoculars and finderscopes.




Ephemerides:
Date       Time       RA (2000)    DEC (2000)    delta   radius  elong  phase   PA    magn
2026-06-18 00:00 UT   18 47 34.2   -14 47 19    41.640   42.612  162.8    0.4   238   18.7 
2026-06-18 16:56 UT   18 47 30.9   -14 47 21    41.637   42.612  163.4    0.4   236   18.7 
2026-06-19 00:00 UT   18 47 29.5   -14 47 22    41.636   42.612  163.7    0.4   236   18.7 
2026-06-20 00:00 UT   18 47 24.8   -14 47 25    41.632   42.612  164.5    0.4   234   18.7 
2026-06-21 00:00 UT   18 47 20.1   -14 47 28    41.628   42.612  165.3    0.3   232   18.7 
2026-06-22 00:00 UT   18 47 15.3   -14 47 31    41.624   42.612  166.1    0.3   230   18.7 
2026-06-23 00:00 UT   18 47 10.5   -14 47 34    41.621   42.611  166.9    0.3   227   18.7 
2026-06-24 00:00 UT   18 47 05.8   -14 47 38    41.618   42.611  167.6    0.3   224   18.7 
2026-06-25 00:00 UT   18 47 01.0   -14 47 42    41.615   42.611  168.3    0.3   221   18.7 
2026-06-26 00:00 UT   18 46 56.2   -14 47 46    41.613   42.611  169.0    0.3   218   18.7 
2026-06-27 00:00 UT   18 46 51.3   -14 47 51    41.611   42.611  169.6    0.2   214   18.7 
2026-06-28 00:00 UT   18 46 46.5   -14 47 55    41.609   42.611  170.2    0.2   209   18.7 
2026-06-29 00:00 UT   18 46 41.7   -14 47 60    41.607   42.611  170.7    0.2   204   18.7 
2026-06-30 00:00 UT   18 46 36.8   -14 48 05    41.606   42.611  171.1    0.2   199   18.7 
2026-07-01 00:00 UT   18 46 32.0   -14 48 10    41.605   42.611  171.4    0.2   193   18.7 
2026-07-02 00:00 UT   18 46 27.1   -14 48 15    41.605   42.611  171.7    0.2   186   18.7 
2026-07-03 00:00 UT   18 46 22.2   -14 48 21    41.604   42.611  171.8    0.2   179   18.7 
2026-07-04 00:00 UT   18 46 17.4   -14 48 27    41.604   42.610  171.8    0.2   173   18.7 
2026-07-05 00:00 UT   18 46 12.5   -14 48 33    41.604   42.610  171.7    0.2   166   18.7 
2026-07-06 00:00 UT   18 46 07.7   -14 48 39    41.605   42.610  171.5    0.2   159   18.7 
2026-07-07 00:00 UT   18 46 02.8   -14 48 45    41.605   42.610  171.2    0.2   153   18.7 
2026-07-08 00:00 UT   18 45 58.0   -14 48 52    41.606   42.610  170.8    0.2   148   18.7 
2026-07-09 00:00 UT   18 45 53.1   -14 48 58    41.608   42.610  170.3    0.2   142   18.7 
2026-07-10 00:00 UT   18 45 48.3   -14 49 05    41.609   42.610  169.7    0.2   138   18.7 
2026-07-11 00:00 UT   18 45 43.5   -14 49 12    41.611   42.610  169.1    0.3   134   18.7 
2026-07-12 00:00 UT   18 45 38.7   -14 49 19    41.613   42.610  168.5    0.3   130   18.7 
2026-07-13 00:00 UT   18 45 33.9   -14 49 27    41.616   42.610  167.8    0.3   127   18.7 
2026-07-14 00:00 UT   18 45 29.1   -14 49 34    41.619   42.610  167.0    0.3   124   18.7 
2026-07-15 00:00 UT   18 45 24.4   -14 49 42    41.622   42.610  166.2    0.3   121   18.7 
2026-07-16 00:00 UT   18 45 19.6   -14 49 50    41.625   42.609  165.5    0.3   119   18.7 
2026-07-17 00:00 UT   18 45 14.9   -14 49 58    41.628   42.609  164.6    0.4   117   18.7 
2026-07-18 00:00 UT   18 45 10.3   -14 50 07    41.632   42.609  163.8    0.4   115   18.7 


    Terminology:
            
    delta:  distance between minor planet and earth in AU
    radius: distance between minor planet and sun in AU
    magn:   magnitude (brightness) estimate    
    ra:     right ascension in hours (24h = 360deg)
    dec:    declination in degrees
    elong:  elongation in degrees (angle sun-earth-minor planet)    
    phase:  phase angle in degrees (angle sun-minor planet-earth)        
    AU:     Astronomical Unit (mean distance between earth and sun: 149597870.7 km
    

Orbital elements provided by the MPC (Minor Planet Center).
Calculations by a modified version of AAPlus, a C# implementation of the AA+ project by PJ Naughter from the algorithms presented in the book "Astronomical Algorithms" by Jean Meeus.
NGC2000 dso catalog and star labels from VizieR as provided by the Strasbourg astronomical Data Center.
Tycho2 catalog from the ESO archive.